Location: Boncourt
(49.6160°N, 3.9448°E)
Time: 00:00:20
(UTC+00:00)

Radarsat Rocket - Pass Details

Date: 09 February 2023
Orbit: 933 x 1491 km, 100.6° (Epoch: 21 March)

Event Time Altitude Azimuth Distance (km) Brightness Sun altitude
Rises 17:35:22 0° 163° (SSE) 3,690 7.0 -7.4°
Reaches altitude 10° 17:37:42 10° 164° (SSE) 2,793 6.4 -7.8°
Maximum altitude 17:44:00 83° 252° (WSW) 1,114 4.4 -8.8°
Drops below altitude 10° 17:51:11 10° 341° (NNW) 3,171 6.8 -9.9°
Sets 17:53:59 0° 343° (NNW) 4,221 7.4 -10.4°
